Stations météo

réclame
Mon MeteoGroup
Kalmar, Suède (2670): Température de l'air & dewpoint: 11.08.2018 13:00:00 - 17.08.2018 13:00:00 (CEST)Kalmar, Suède (2670): Vitesse du vent: 11.08.2018 13:00:00 - 17.08.2018 13:00:00 (CEST)Kalmar, Suède (2670): Direction du vent: 11.08.2018 13:00:00 - 17.08.2018 13:00:00 (CEST)Kalmar, Suède (2670): reduced air pressure: 11.08.2018 13:00:00 - 17.08.2018 13:00:00 (CEST)Kalmar, Suède (2670): visibility: 11.08.2018 13:00:00 - 17.08.2018 13:00:00 (CEST)
Date & Time tt [°C] td [°C] ff [km/h] ff [knt] dd ppp [hPa] vv [km]
17.08.2018 13:00:00 23,2 17,9 29 16 S 1015,1 10
17.08.2018 12:00:00 23,3 18,0 28 15 SSE 1015,3 10
17.08.2018 11:00:00 22,9 18,0 28 15 S 1015,4 10
17.08.2018 10:00:00 22,3 17,7 24 13 SSE 1015,5 10
17.08.2018 09:00:00 21,7 17,3 21 11 S 1015,5 10
17.08.2018 08:00:00 20,9 17,5 21 11 S 1015,6 10
17.08.2018 07:00:00 20,3 17,3 16 9 S 1015,5 10
17.08.2018 06:00:00 19,4 17,5 11 6 S 1015,5 10
17.08.2018 05:00:00 19,8 17,6 15 8 S 1015,5 10
17.08.2018 04:00:00 19,1 17,4 15 8 S 1015,7 10
17.08.2018 03:00:00 19,2 17,3 15 8 SSE 1015,8 10
17.08.2018 02:00:00 19,2 16,6 16 9 S 1016,2 10
17.08.2018 01:00:00 18,9 17,2 16 9 SSE 1016,5 10
17.08.2018 00:00:00 19,5 17,5 18 10 S 1016,7 10
16.08.2018 23:00:00 19,3 17,8 18 10 S 1016,6 9
16.08.2018 22:00:00 19,2 17,9 15 8 S 1016,5 9
16.08.2018 21:00:00 19,7 17,5 16 9 S 1016,5 10
16.08.2018 20:00:00 20,5 17,7 21 11 S 1016,3 10
16.08.2018 19:00:00 21,5 18,3 24 13 S 1016,2 10
16.08.2018 18:00:00 22,1 17,5 24 13 S 1016,4 10
16.08.2018 17:00:00 22,5 17,2 26 14 S 1016,6 10
16.08.2018 16:00:00 22,6 17,3 28 15 S 1016,6 10
16.08.2018 15:00:00 22,1 17,2 29 16 S 1017,1 10
16.08.2018 14:00:00 22,9 17,4 28 15 S 1017,2 10
16.08.2018 13:00:00 22,1 17,2 22 12 S 1017,5 10
16.08.2018 12:00:00 21,5 17,9 26 14 S 1017,6 10
16.08.2018 11:00:00 22,5 16,8 16 9 S 1017,8 10
16.08.2018 10:00:00 21,1 16,9 11 6 S 1017,8 10
16.08.2018 09:00:00 20,4 16,0 8 4 S 1017,7 10
16.08.2018 08:00:00 17,7 15,0 0 0 N 1017,8 10
16.08.2018 07:00:00 14,1 13,9 2 1 SSE 1017,8 10
16.08.2018 06:00:00 12,0 12,0 5 3 S 1017,4 10
16.08.2018 05:00:00 11,2 11,2 0 0 N 1017,5 1,6
16.08.2018 04:00:00 12,1 12,1 0 0 N 1017,2 9
16.08.2018 03:00:00 12,2 12,0 4 2 S 1017,1 10
16.08.2018 02:00:00 12,3 12,3 0 0 N 1017,0 0,2
16.08.2018 01:00:00 13,2 13,0 2 1 WSW 1016,9 10
16.08.2018 00:00:00 13,9 13,7 0 0 N 1016,6 9
15.08.2018 23:00:00 14,7 14,4 5 3 W 1016,3 0,6
15.08.2018 22:00:00 16,2 15,6 0 0 N 1015,9 10
15.08.2018 21:00:00 18,4 16,4 2 1 ESE 1015,5 10
15.08.2018 20:00:00 19,8 16,8 5 3 - 1014,9 10
15.08.2018 19:00:00 20,3 16,1 9 5 ESE 1014,5 10
15.08.2018 18:00:00 20,7 15,9 11 6 ENE 1014,1 10
15.08.2018 17:00:00 21,0 16,4 9 5 SSE 1013,8 10
15.08.2018 16:00:00 22,5 14,1 4 2 NW 1013,4 10
15.08.2018 15:00:00 21,9 14,3 9 5 W 1013,2 10
15.08.2018 14:00:00 22,0 14,1 5 3 WSW 1012,9 10
15.08.2018 13:00:00 21,3 14,7 11 6 NW 1012,6 10
15.08.2018 12:00:00 21,2 15,9 13 7 NW 1012,4 10
15.08.2018 11:00:00 19,8 15,9 16 9 WNW 1012,0 10
15.08.2018 10:00:00 18,4 15,5 13 7 WNW 1011,6 10
15.08.2018 09:00:00 18,7 15,9 16 9 NW 1010,5 10
15.08.2018 08:00:00 17,3 16,0 15 8 WNW 1009,9 10
15.08.2018 07:00:00 16,7 15,9 11 6 WNW 1009,7 10
15.08.2018 06:00:00 16,2 15,7 13 7 NW 1009,2 10
15.08.2018 05:00:00 16,3 15,8 13 7 NW 1008,6 10
15.08.2018 04:00:00 16,1 15,8 13 7 WNW 1008,0 10
15.08.2018 03:00:00 15,3 15,0 8 4 WNW 1007,4 10
15.08.2018 02:00:00 15,7 15,5 9 5 WNW 1007,0 10
15.08.2018 01:00:00 14,8 14,6 8 4 NW 1007,0 10
15.08.2018 00:00:00 15,6 15,1 8 4 W 1006,3 10
14.08.2018 23:00:00 16,4 15,9 5 3 WNW 1006,0 10
14.08.2018 22:00:00 17,3 16,8 4 2 WNW 1005,8 10
14.08.2018 21:00:00 18,0 17,5 5 3 WSW 1005,6 10
14.08.2018 20:00:00 17,8 16,7 4 2 - 1005,2 10
14.08.2018 19:00:00 19,7 17,5 5 3 SW 1005,0 10
14.08.2018 18:00:00 19,5 16,9 9 5 SW 1005,0 10
14.08.2018 17:00:00 17,0 15,7 8 4 SSW 1005,3 10
14.08.2018 16:00:00 16,3 15,2 13 7 WNW 1005,0 10
14.08.2018 15:00:00 22,3 17,2 18 10 SSE 1004,9 10
14.08.2018 14:00:00 21,8 17,4 15 8 SE 1005,0 10
14.08.2018 13:00:00 22,6 17,5 21 11 ESE 1005,3 10
14.08.2018 12:00:00 20,3 17,1 21 11 ESE 1005,8 10
14.08.2018 11:00:00 19,3 17,1 18 10 E 1006,3 10
14.08.2018 10:00:00 19,1 17,1 18 10 E 1006,8 10
14.08.2018 09:00:00 18,6 16,8 16 9 E 1007,1 10
14.08.2018 08:00:00 18,4 16,6 13 7 E 1007,3 10
14.08.2018 07:00:00 17,9 16,4 11 6 ENE 1007,5 10
14.08.2018 06:00:00 17,5 16,4 11 6 ENE 1007,6 10
14.08.2018 05:00:00 17,6 16,8 8 4 E 1008,4 10
14.08.2018 04:00:00 17,2 16,6 8 4 E 1008,6 10
14.08.2018 03:00:00 16,6 16,0 8 4 ENE 1008,9 10
14.08.2018 02:00:00 17,2 15,9 5 3 E 1009,6 10
14.08.2018 01:00:00 17,2 15,7 5 3 E 1009,9 10
14.08.2018 00:00:00 16,7 15,2 5 3 E 1009,7 10
13.08.2018 23:00:00 16,6 14,8 9 5 ESE 1009,7 10
13.08.2018 22:00:00 16,4 14,2 13 7 ESE 1009,7 10
13.08.2018 21:00:00 16,4 13,7 9 5 SE 1009,9 10
13.08.2018 20:00:00 17,5 13,4 11 6 SE 1010,0 10
13.08.2018 19:00:00 18,4 13,9 8 4 SSE 1009,9 10
13.08.2018 18:00:00 17,8 13,7 9 5 S 1010,5 10
13.08.2018 17:00:00 18,4 13,7 9 5 S 1010,7 10
13.08.2018 16:00:00 18,2 13,5 13 7 S 1010,7 10
13.08.2018 15:00:00 18,2 12,2 11 6 S 1010,7 10
13.08.2018 14:00:00 18,6 11,2 11 6 S 1010,9 10
13.08.2018 13:00:00 18,4 10,7 13 7 SSE 1010,9 10
13.08.2018 12:00:00 18,5 10,1 8 4 SSE 1011,0 10
13.08.2018 11:00:00 17,7 9,6 5 3 SSE 1010,9 10
13.08.2018 10:00:00 17,1 10,9 4 2 - 1011,0 10
13.08.2018 09:00:00 16,3 10,8 4 2 E 1010,9 10
13.08.2018 08:00:00 14,3 11,6 5 3 NW 1011,0 10
13.08.2018 07:00:00 13,1 12,0 2 1 - 1010,9 10
13.08.2018 06:00:00 10,7 10,4 4 2 WNW 1010,9 10
13.08.2018 05:00:00 11,2 10,4 2 1 WSW 1010,9 10
13.08.2018 04:00:00 12,8 11,5 8 4 WSW 1010,9 10
13.08.2018 03:00:00 13,7 11,6 5 3 W 1010,9 10
13.08.2018 02:00:00 14,4 11,9 9 5 W 1011,0 10
13.08.2018 01:00:00 14,5 11,5 13 7 W 1011,1 10
13.08.2018 00:00:00 15,1 11,3 11 6 W 1011,0 10
12.08.2018 23:00:00 15,6 10,8 11 6 WSW 1011,1 10
12.08.2018 22:00:00 16,2 10,1 16 9 WSW 1011,2 10
12.08.2018 21:00:00 17,1 9,3 16 9 WSW 1011,1 10
12.08.2018 20:00:00 18,2 7,6 21 11 W 1010,9 10
12.08.2018 19:00:00 19,2 6,7 26 14 W 1010,5 10
12.08.2018 18:00:00 19,6 7,0 28 15 W 1010,6 10
12.08.2018 17:00:00 19,9 6,9 34 18 W 1010,7 10
12.08.2018 16:00:00 19,4 7,8 35 19 W 1010,6 10
12.08.2018 15:00:00 20,9 6,0 37 20 W 1010,2 10
12.08.2018 14:00:00 20,0 7,4 31 17 W 1010,3 10
12.08.2018 13:00:00 19,6 6,3 41 22 W 1010,3 10
12.08.2018 12:00:00 20,0 6,7 35 19 W 1010,2 10
12.08.2018 11:00:00 18,6 8,3 37 20 W 1010,2 10
12.08.2018 10:00:00 17,5 9,9 34 18 W 1010,0 10
12.08.2018 09:00:00 16,8 11,5 29 16 W 1009,8 10
12.08.2018 08:00:00 15,4 11,6 26 14 W 1009,5 10
12.08.2018 07:00:00 12,9 11,1 16 9 WSW 1009,3 10
12.08.2018 06:00:00 12,1 11,0 15 8 WSW 1009,0 10
12.08.2018 05:00:00 11,7 10,6 13 7 W 1008,6 10
12.08.2018 04:00:00 11,5 10,2 15 8 W 1008,2 10
12.08.2018 03:00:00 11,7 9,8 15 8 WSW 1008,7 10
12.08.2018 02:00:00 10,6 9,7 8 4 W 1008,7 10
12.08.2018 01:00:00 11,6 10,2 9 5 W 1008,8 10
12.08.2018 00:00:00 13,3 11,4 9 5 WSW 1009,1 10
11.08.2018 23:00:00 14,3 11,6 13 7 SSW 1009,5 10
11.08.2018 22:00:00 14,4 11,7 15 8 SSW 1009,8 10
11.08.2018 21:00:00 15,0 12,0 11 6 SSW 1010,5 10
11.08.2018 20:00:00 16,3 12,5 13 7 SSW 1010,9 10
11.08.2018 19:00:00 17,4 13,5 13 7 S 1011,2 10
11.08.2018 18:00:00 16,1 15,0 9 5 SE 1012,2 10
11.08.2018 17:00:00 12,8 12,2 5 3 S 1013,6 2,4
11.08.2018 16:00:00 16,7 10,1 31 17 WSW 1013,8 10
11.08.2018 15:00:00 23,7 10,4 26 14 S 1013,5 10
11.08.2018 14:00:00 20,8 13,7 8 4 WNW 1014,8 10
11.08.2018 13:00:00 17,2 13,1 8 4 WNW 1016,1 10

tt = Température de l'air
td = dewpoint
ff = Vitesse du vent
dd = Direction du vent
ppp = reduced air pressure
vv = visibility

stations d'obs. à proximité